RYR1744 LGKR-LZIB

Flight info

Callsign RYR1744
Flight time 1h 34m
Altitude 38000
Route NIKRO DCT OVVER DCT UNDER DCT ALELU DCT TADAM DCT TONDO DCT JOZEP DCT PUCOG DCT BODZA DCT XOMBA
Aircraft B738/M-SDE3FGIJ1LRWY/SB1

Departure

Time 2026-04-29 14:15
Airport Corfu Ioannis Kapodistrias International Airport (LGKR)

Arrival

Time 2026-04-29 15:49
Airport M. R. Štefánik Airport (LZIB)
Time Latitude Longitude Altitude Speed Heading
2026-04-29 13:48 39.60706 19.91355 17 ft 0 kts 79°
2026-04-29 14:07 39.60705 19.91349 17 ft 3 kts 79°
2026-04-29 14:08 39.60700 19.91315 19 ft 4 kts 79°
2026-04-29 14:08 39.60695 19.91280 21 ft 4 kts 79°
2026-04-29 14:08 39.60691 19.91252 20 ft 4 kts 76°
2026-04-29 14:08 39.60680 19.91228 22 ft 4 kts 15°
2026-04-29 14:09 39.60656 19.91228 19 ft 4 kts 349°
2026-04-29 14:09 39.60642 19.91231 20 ft 0 kts 349°
2026-04-29 14:11 39.60663 19.91226 19 ft 6 kts 349°
2026-04-29 14:11 39.60726 19.91210 17 ft 11 kts 349°
2026-04-29 14:11 39.60815 19.91188 19 ft 14 kts 348°
2026-04-29 14:12 39.60913 19.91162 20 ft 14 kts 348°
2026-04-29 14:12 39.61008 19.91136 18 ft 14 kts 348°
2026-04-29 14:12 39.61102 19.91110 18 ft 15 kts 348°
2026-04-29 14:12 39.61202 19.91070 19 ft 15 kts 316°
2026-04-29 14:13 39.61222 19.90965 20 ft 9 kts 233°
2026-04-29 14:13 39.61192 19.90956 20 ft 0 kts 168°
2026-04-29 14:14 39.61184 19.90958 20 ft 7 kts 168°
2026-04-29 14:14 39.60896 19.91032 20 ft 77 kts 168°
2026-04-29 14:14 39.60158 19.91223 21 ft 136 kts 168°
2026-04-29 14:15 39.59091 19.91482 162 ft 169 kts 171°
2026-04-29 14:15 39.57971 19.91844 859 ft 170 kts 157°
2026-04-29 14:15 39.57152 19.92988 1339 ft 184 kts 117°
2026-04-29 14:15 39.56582 19.94568 1713 ft 202 kts 123°
2026-04-29 14:16 39.55574 19.95907 2073 ft 211 kts 143°
2026-04-29 14:16 39.54398 19.97114 2510 ft 221 kts 142°
2026-04-29 14:16 39.53177 19.98381 3092 ft 227 kts 143°
2026-04-29 14:16 39.51946 19.99654 3821 ft 226 kts 143°
2026-04-29 14:17 39.50735 20.00927 4405 ft 232 kts 138°
2026-04-29 14:17 39.49805 20.02623 5060 ft 234 kts 112°
2026-04-29 14:17 39.49509 20.04703 5640 ft 238 kts 86°
2026-04-29 14:17 39.49927 20.06755 6297 ft 237 kts 59°
2026-04-29 14:18 39.50975 20.08380 6919 ft 236 kts 33°
2026-04-29 14:18 39.52451 20.09256 7560 ft 234 kts 11°
2026-04-29 14:18 39.54053 20.09639 8219 ft 235 kts
2026-04-29 14:18 39.55683 20.09934 8887 ft 238 kts
2026-04-29 14:19 39.57329 20.10225 9578 ft 240 kts
2026-04-29 14:19 39.58989 20.10529 10260 ft 242 kts
2026-04-29 14:19 39.60664 20.10845 10916 ft 244 kts
2026-04-29 14:19 39.62360 20.11172 11530 ft 251 kts
2026-04-29 14:20 39.64158 20.11519 11767 ft 274 kts
2026-04-29 14:20 39.66100 20.11888 11969 ft 297 kts
2026-04-29 14:20 39.68242 20.11943 12154 ft 319 kts 354°
2026-04-29 14:20 39.70529 20.11683 12388 ft 339 kts 353°
2026-04-29 14:21 39.72911 20.11359 12942 ft 348 kts 352°
2026-04-29 14:21 39.75335 20.11025 13703 ft 351 kts 352°
2026-04-29 14:21 39.77775 20.10699 14450 ft 354 kts 352°
2026-04-29 14:21 39.80241 20.10379 15177 ft 357 kts 352°
2026-04-29 14:22 39.82724 20.10065 15921 ft 360 kts 352°
2026-04-29 14:22 39.85234 20.09753 16622 ft 364 kts 352°
2026-04-29 14:22 39.87771 20.09440 17316 ft 368 kts 352°
2026-04-29 14:22 39.90330 20.09128 18027 ft 371 kts 352°
2026-04-29 14:23 39.92917 20.08812 18653 ft 375 kts 352°
2026-04-29 14:23 39.95531 20.08494 19270 ft 378 kts 352°
2026-04-29 14:23 39.98157 20.08175 19909 ft 380 kts 352°
2026-04-29 14:23 40.00803 20.07853 20546 ft 383 kts 351°
2026-04-29 14:24 40.03466 20.07529 21170 ft 386 kts 351°
2026-04-29 14:24 40.06150 20.07202 21759 ft 389 kts 351°
2026-04-29 14:24 40.08856 20.06871 22308 ft 393 kts 351°
2026-04-29 14:24 40.11587 20.06538 22879 ft 395 kts 351°
2026-04-29 14:25 40.14331 20.06202 23483 ft 398 kts 351°
2026-04-29 14:25 40.17100 20.05864 23941 ft 401 kts 352°
2026-04-29 14:25 40.19889 20.05522 24423 ft 403 kts 352°
2026-04-29 14:25 40.22683 20.05181 24974 ft 404 kts 351°
2026-04-29 14:26 40.25508 20.04834 25255 ft 410 kts 351°
2026-04-29 14:26 40.28357 20.04484 25733 ft 412 kts 351°
2026-04-29 14:26 40.31215 20.04133 26215 ft 413 kts 351°
2026-04-29 14:26 40.34082 20.03781 26657 ft 415 kts 351°
2026-04-29 14:27 40.36972 20.03425 27078 ft 419 kts 351°
2026-04-29 14:27 40.39880 20.03067 27497 ft 421 kts 351°
2026-04-29 14:27 40.42809 20.02706 27918 ft 424 kts 351°
2026-04-29 14:28 40.48713 20.01978 28681 ft 428 kts 351°
2026-04-29 14:28 40.51682 20.01612 29078 ft 429 kts 351°
2026-04-29 14:28 40.54663 20.01243 29407 ft 432 kts 351°
2026-04-29 14:28 40.57671 20.00871 29685 ft 436 kts 351°
2026-04-29 14:29 40.60660 20.00504 30033 ft 438 kts 351°
2026-04-29 14:29 40.63702 20.00131 30345 ft 440 kts 351°
2026-04-29 14:29 40.66751 19.99757 30704 ft 440 kts 351°
2026-04-29 14:29 40.69797 19.99383 31136 ft 438 kts 351°
2026-04-29 14:30 40.72827 19.99011 31594 ft 436 kts 351°
2026-04-29 14:30 40.75842 19.98640 32024 ft 434 kts 351°
2026-04-29 14:30 40.78848 19.98270 32417 ft 434 kts 351°
2026-04-29 14:30 40.81851 19.97898 32820 ft 433 kts 351°
2026-04-29 14:31 40.84841 19.97528 33247 ft 431 kts 351°
2026-04-29 14:31 40.87821 19.97160 33666 ft 429 kts 351°
2026-04-29 14:31 40.90786 19.96792 34084 ft 427 kts 351°
2026-04-29 14:31 40.93744 19.96425 34382 ft 427 kts 351°
2026-04-29 14:32 40.96700 19.96057 34646 ft 427 kts 351°
2026-04-29 14:32 40.99660 19.95689 34925 ft 427 kts 351°
2026-04-29 14:32 41.02607 19.95323 35226 ft 426 kts 350°
2026-04-29 14:32 41.05558 19.94955 35524 ft 426 kts 350°
2026-04-29 14:33 41.08514 19.94609 35737 ft 427 kts 351°
2026-04-29 14:33 41.11484 19.94369 36016 ft 428 kts 353°
2026-04-29 14:33 41.14456 19.94185 36325 ft 427 kts 353°
2026-04-29 14:33 41.17419 19.94016 36617 ft 426 kts 353°
2026-04-29 14:34 41.20381 19.93845 36887 ft 426 kts 353°
2026-04-29 14:34 41.23342 19.93665 37115 ft 426 kts 352°
2026-04-29 14:34 41.26302 19.93477 37375 ft 426 kts 352°
2026-04-29 14:34 41.29257 19.93284 37668 ft 424 kts 352°
2026-04-29 14:35 41.32199 19.93088 37973 ft 423 kts 352°
2026-04-29 14:35 41.38115 19.92684 38043 ft 428 kts 352°
2026-04-29 14:36 41.44031 19.92283 38068 ft 424 kts 352°
2026-04-29 14:36 41.49864 19.91887 38073 ft 422 kts 352°
2026-04-29 14:37 41.55707 19.91489 38079 ft 419 kts 352°
2026-04-29 14:37 41.61535 19.91089 38070 ft 419 kts 352°
2026-04-29 14:38 41.67348 19.90691 38082 ft 417 kts 352°
2026-04-29 14:38 41.73135 19.90295 38066 ft 416 kts 352°
2026-04-29 14:39 41.78911 19.89898 38065 ft 415 kts 352°
2026-04-29 14:39 41.84678 19.89500 38065 ft 415 kts 352°
2026-04-29 14:40 41.90455 19.89101 38069 ft 416 kts 351°
2026-04-29 14:40 41.96239 19.88702 38052 ft 415 kts 351°
2026-04-29 14:41 42.02016 19.88301 38065 ft 417 kts 351°
2026-04-29 14:41 42.07823 19.87898 38086 ft 418 kts 351°
2026-04-29 14:42 42.13647 19.87494 38056 ft 419 kts 351°
2026-04-29 14:42 42.19493 19.87086 38058 ft 421 kts 351°
2026-04-29 14:43 42.25336 19.86680 38067 ft 421 kts 351°
2026-04-29 14:43 42.31201 19.86271 38061 ft 422 kts 351°
2026-04-29 14:44 42.37074 19.85860 38065 ft 422 kts 351°
2026-04-29 14:44 42.42933 19.85449 38051 ft 421 kts 351°
2026-04-29 14:45 42.48771 19.85034 38076 ft 420 kts 350°
2026-04-29 14:45 42.54587 19.84457 38065 ft 418 kts 349°
2026-04-29 14:46 42.60377 19.83815 38054 ft 416 kts 349°
2026-04-29 14:46 42.66143 19.83185 38065 ft 415 kts 349°
2026-04-29 14:47 42.71892 19.82570 38037 ft 412 kts 349°
2026-04-29 14:47 42.77578 19.81968 38064 ft 409 kts 349°
2026-04-29 14:48 42.83239 19.81364 38056 ft 408 kts 349°
2026-04-29 14:48 42.88927 19.80754 38077 ft 413 kts 349°
2026-04-29 14:49 42.94678 19.80138 38049 ft 414 kts 349°
2026-04-29 14:49 43.00410 19.79528 38051 ft 412 kts 349°
2026-04-29 14:50 43.06136 19.78917 38056 ft 413 kts 349°
2026-04-29 14:50 43.11826 19.78306 38049 ft 414 kts 349°
2026-04-29 14:51 43.17562 19.77687 38050 ft 413 kts 349°
2026-04-29 14:51 43.23295 19.77072 38043 ft 413 kts 349°
2026-04-29 14:52 43.29010 19.76457 38073 ft 412 kts 349°
2026-04-29 14:52 43.34727 19.75836 38074 ft 412 kts 349°
2026-04-29 14:53 43.40446 19.75216 38062 ft 412 kts 349°
2026-04-29 14:53 43.46169 19.74595 38103 ft 413 kts 349°
2026-04-29 14:54 43.51904 19.73971 38087 ft 413 kts 348°
2026-04-29 14:54 43.57633 19.73348 38085 ft 413 kts 348°
2026-04-29 14:55 43.63351 19.72724 38079 ft 412 kts 348°
2026-04-29 14:55 43.69067 19.72099 38062 ft 412 kts 348°
2026-04-29 14:56 43.74772 19.71474 38091 ft 411 kts 348°
2026-04-29 14:56 43.79504 19.70955 38098 ft 410 kts 348°
2026-04-29 14:57 43.85186 19.70330 38139 ft 409 kts 348°
2026-04-29 14:57 43.90867 19.69704 38124 ft 410 kts 348°
2026-04-29 14:58 43.96548 19.69076 38125 ft 410 kts 348°
2026-04-29 14:58 44.02234 19.68446 38130 ft 411 kts 348°
2026-04-29 14:59 44.07936 19.67814 38144 ft 412 kts 348°
2026-04-29 14:59 44.13649 19.67180 38145 ft 412 kts 348°
2026-04-29 15:00 44.19359 19.66547 38150 ft 411 kts 348°
2026-04-29 15:00 44.25055 19.65912 38167 ft 410 kts 348°
2026-04-29 15:01 44.30748 19.65275 38186 ft 411 kts 348°
2026-04-29 15:01 44.36454 19.64636 38173 ft 412 kts 348°
2026-04-29 15:02 44.42133 19.63999 38175 ft 412 kts 348°
2026-04-29 15:02 44.47852 19.63357 38195 ft 413 kts 348°
2026-04-29 15:03 44.53590 19.62711 38191 ft 413 kts 348°
2026-04-29 15:03 44.59329 19.62065 38188 ft 414 kts 348°
2026-04-29 15:04 44.65072 19.61416 38175 ft 414 kts 348°
2026-04-29 15:04 44.70808 19.60767 38197 ft 414 kts 348°
2026-04-29 15:05 44.76541 19.60116 38197 ft 413 kts 348°
2026-04-29 15:05 44.82262 19.59466 38197 ft 412 kts 348°
2026-04-29 15:06 44.87979 19.58815 38227 ft 412 kts 348°
2026-04-29 15:06 44.93692 19.58163 38217 ft 411 kts 348°
2026-04-29 15:07 44.99395 19.57511 38205 ft 411 kts 348°
2026-04-29 15:07 45.05084 19.56859 38205 ft 410 kts 348°
2026-04-29 15:08 45.10766 19.56207 38205 ft 409 kts 348°
2026-04-29 15:08 45.16441 19.55553 38194 ft 409 kts 348°
2026-04-29 15:09 45.22122 19.54898 38207 ft 409 kts 348°
2026-04-29 15:09 45.27765 19.54004 38234 ft 406 kts 344°
2026-04-29 15:10 45.33298 19.52679 38212 ft 406 kts 343°
2026-04-29 15:10 45.38903 19.51299 38198 ft 406 kts 343°
2026-04-29 15:11 45.44443 19.49968 38202 ft 406 kts 344°
2026-04-29 15:11 45.50027 19.48644 38236 ft 407 kts 344°
2026-04-29 15:12 45.55629 19.47320 38204 ft 408 kts 344°
2026-04-29 15:12 45.61226 19.45995 38192 ft 408 kts 344°
2026-04-29 15:13 45.66819 19.44668 38199 ft 407 kts 344°
2026-04-29 15:13 45.72409 19.43338 38213 ft 407 kts 344°
2026-04-29 15:14 45.78004 19.42004 38199 ft 407 kts 344°
2026-04-29 15:14 45.83595 19.40668 38188 ft 407 kts 344°
2026-04-29 15:15 45.89176 19.39332 38190 ft 407 kts 344°
2026-04-29 15:15 45.94755 19.37993 38205 ft 407 kts 344°
2026-04-29 15:16 46.00329 19.36654 38197 ft 407 kts 344°
2026-04-29 15:16 46.05854 19.35081 38173 ft 400 kts 335°
2026-04-29 15:17 46.11059 19.32332 38188 ft 398 kts 334°
2026-04-29 15:17 46.16217 19.29549 38216 ft 399 kts 334°
2026-04-29 15:18 46.21463 19.26741 38201 ft 400 kts 334°
2026-04-29 15:18 46.26691 19.23956 38188 ft 401 kts 334°
2026-04-29 15:19 46.31892 19.21186 38192 ft 401 kts 334°
2026-04-29 15:19 46.37132 19.18390 38180 ft 402 kts 334°
2026-04-29 15:20 46.42392 19.15577 37888 ft 408 kts 334°
2026-04-29 15:20 46.45051 19.14152 37458 ft 406 kts 334°
2026-04-29 15:20 46.47698 19.12735 36950 ft 404 kts 334°
2026-04-29 15:20 46.50328 19.11326 36385 ft 403 kts 333°
2026-04-29 15:21 46.52953 19.09917 35827 ft 402 kts 333°
2026-04-29 15:21 46.55576 19.08507 35231 ft 402 kts 333°
2026-04-29 15:21 46.58198 19.07095 34640 ft 402 kts 332°
2026-04-29 15:21 46.60822 19.05680 34016 ft 402 kts 332°
2026-04-29 15:22 46.63443 19.04266 33416 ft 401 kts 332°
2026-04-29 15:22 46.66044 19.02864 32952 ft 396 kts 332°
2026-04-29 15:22 46.68614 19.01479 32515 ft 391 kts 332°
2026-04-29 15:22 46.71152 19.00109 32068 ft 387 kts 331°
2026-04-29 15:23 46.73620 18.98774 31648 ft 382 kts 331°
2026-04-29 15:23 46.76099 18.97431 31214 ft 379 kts 331°
2026-04-29 15:23 46.78557 18.96096 30797 ft 375 kts 331°
2026-04-29 15:23 46.80989 18.94775 30384 ft 371 kts 330°
2026-04-29 15:24 46.83399 18.93464 29921 ft 368 kts 330°
2026-04-29 15:24 46.85783 18.92167 29536 ft 363 kts 330°
2026-04-29 15:24 46.88140 18.90882 29058 ft 360 kts 330°
2026-04-29 15:24 46.90467 18.89613 28660 ft 355 kts 330°
2026-04-29 15:25 46.92772 18.88355 28230 ft 351 kts 330°
2026-04-29 15:25 46.95050 18.87110 27804 ft 348 kts 330°
2026-04-29 15:25 46.97308 18.85875 27410 ft 344 kts 330°
2026-04-29 15:25 46.99541 18.84651 26989 ft 342 kts 330°
2026-04-29 15:26 47.01752 18.83439 26592 ft 339 kts 331°
2026-04-29 15:26 47.03950 18.82233 26194 ft 336 kts 331°
2026-04-29 15:26 47.06133 18.81034 25796 ft 334 kts 331°
2026-04-29 15:26 47.08298 18.79844 25402 ft 331 kts 331°
2026-04-29 15:27 47.10447 18.78661 25046 ft 329 kts 332°
2026-04-29 15:27 47.12589 18.77482 24646 ft 328 kts 332°
2026-04-29 15:27 47.14721 18.76307 24253 ft 327 kts 332°
2026-04-29 15:27 47.16847 18.75135 23865 ft 326 kts 332°
2026-04-29 15:28 47.18962 18.73964 23415 ft 324 kts 332°
2026-04-29 15:28 47.20334 18.73132 23169 ft 320 kts 330°
2026-04-29 15:28 47.23041 18.71376 22644 ft 316 kts 329°
2026-04-29 15:28 47.25039 18.70055 22256 ft 314 kts 329°
2026-04-29 15:29 47.27027 18.68744 21870 ft 312 kts 330°
2026-04-29 15:29 47.30987 18.66144 21112 ft 312 kts 330°
2026-04-29 15:30 47.35004 18.63513 20354 ft 322 kts 331°
2026-04-29 15:30 47.37066 18.62165 19955 ft 325 kts 331°
2026-04-29 15:30 47.38429 18.61275 19689 ft 323 kts 331°
2026-04-29 15:30 47.41128 18.59469 19156 ft 319 kts 328°
2026-04-29 15:31 47.42979 18.57729 18775 ft 314 kts 320°
2026-04-29 15:31 47.44702 18.55769 18382 ft 312 kts 319°
2026-04-29 15:31 47.46409 18.53808 17945 ft 310 kts 320°
2026-04-29 15:31 47.48109 18.51860 17535 ft 308 kts 320°
2026-04-29 15:32 47.49800 18.49933 17148 ft 306 kts 320°
2026-04-29 15:32 47.51480 18.48023 16776 ft 303 kts 320°
2026-04-29 15:32 47.53147 18.46132 16410 ft 301 kts 320°
2026-04-29 15:32 47.54801 18.44253 16042 ft 299 kts 321°
2026-04-29 15:33 47.56348 18.42225 15670 ft 296 kts 311°
2026-04-29 15:33 47.57655 18.39882 15245 ft 296 kts 308°
2026-04-29 15:33 47.58944 18.37475 14782 ft 299 kts 308°
2026-04-29 15:33 47.60231 18.35060 14377 ft 298 kts 308°
2026-04-29 15:34 47.61516 18.32654 14013 ft 297 kts 309°
2026-04-29 15:34 47.62801 18.30256 13591 ft 296 kts 309°
2026-04-29 15:34 47.64081 18.27871 13206 ft 295 kts 309°
2026-04-29 15:34 47.65352 18.25503 12837 ft 293 kts 309°
2026-04-29 15:35 47.66616 18.23152 12499 ft 290 kts 309°
2026-04-29 15:35 47.67871 18.20816 12143 ft 288 kts 309°
2026-04-29 15:35 47.69117 18.18494 11798 ft 287 kts 309°
2026-04-29 15:35 47.70355 18.16186 11446 ft 285 kts 309°
2026-04-29 15:36 47.71588 18.13887 11105 ft 284 kts 309°
2026-04-29 15:36 47.72816 18.11596 10766 ft 283 kts 309°
2026-04-29 15:36 47.74039 18.09310 10427 ft 282 kts 309°
2026-04-29 15:36 47.75246 18.07053 10273 ft 275 kts 309°
2026-04-29 15:37 47.76312 18.04748 10146 ft 267 kts 300°
2026-04-29 15:37 47.77147 18.02331 10052 ft 259 kts 298°
2026-04-29 15:37 47.77920 17.99970 9911 ft 252 kts 298°
2026-04-29 15:37 47.78675 17.97675 9673 ft 249 kts 298°
2026-04-29 15:38 47.79440 17.95376 9408 ft 247 kts 299°
2026-04-29 15:38 47.80207 17.93094 9147 ft 246 kts 299°
2026-04-29 15:38 47.80973 17.90826 8886 ft 245 kts 299°
2026-04-29 15:38 47.81740 17.88571 8623 ft 244 kts 299°
2026-04-29 15:39 47.82504 17.86326 8366 ft 243 kts 299°
2026-04-29 15:39 47.83265 17.84091 8113 ft 241 kts 299°
2026-04-29 15:39 47.84023 17.81863 7859 ft 241 kts 299°
2026-04-29 15:39 47.84779 17.79642 7599 ft 240 kts 299°
2026-04-29 15:40 47.85535 17.77426 7333 ft 240 kts 300°
2026-04-29 15:40 47.86291 17.75207 7096 ft 240 kts 300°
2026-04-29 15:40 47.87045 17.72993 6869 ft 239 kts 300°
2026-04-29 15:40 47.87794 17.70794 6650 ft 238 kts 300°
2026-04-29 15:41 47.88542 17.68597 6426 ft 237 kts 300°
2026-04-29 15:41 47.89280 17.66428 6260 ft 233 kts 301°
2026-04-29 15:41 47.90008 17.64282 6043 ft 232 kts 301°
2026-04-29 15:41 47.90734 17.62145 5805 ft 231 kts 301°
2026-04-29 15:42 47.91626 17.60201 5553 ft 226 kts 319°
2026-04-29 15:42 47.92753 17.58585 5280 ft 226 kts 318°
2026-04-29 15:42 47.93869 17.56917 5017 ft 227 kts 318°
2026-04-29 15:42 47.94967 17.55249 4821 ft 224 kts 318°
2026-04-29 15:43 47.96053 17.53591 4582 ft 224 kts 318°
2026-04-29 15:43 47.97145 17.51923 4300 ft 225 kts 318°
2026-04-29 15:43 47.97866 17.50818 4167 ft 224 kts 318°
2026-04-29 15:43 47.98941 17.49170 3994 ft 220 kts 318°
2026-04-29 15:44 48.00003 17.47539 3770 ft 220 kts 318°
2026-04-29 15:44 48.01069 17.45900 3516 ft 220 kts 318°
2026-04-29 15:44 48.02134 17.44262 3276 ft 219 kts 319°
2026-04-29 15:44 48.03193 17.42633 3023 ft 218 kts 319°
2026-04-29 15:45 48.04230 17.41032 2933 ft 210 kts 319°
2026-04-29 15:45 48.05226 17.39495 2821 ft 203 kts 319°
2026-04-29 15:45 48.06210 17.38040 2722 ft 194 kts 320°
2026-04-29 15:45 48.07130 17.36652 2632 ft 183 kts 319°
2026-04-29 15:46 48.07987 17.35321 2526 ft 171 kts 319°
2026-04-29 15:46 48.08785 17.34078 2453 ft 166 kts 320°
2026-04-29 15:46 48.09596 17.32818 2226 ft 169 kts 320°
2026-04-29 15:46 48.10400 17.31563 2003 ft 165 kts 319°
2026-04-29 15:47 48.11183 17.30339 1772 ft 159 kts 319°
2026-04-29 15:47 48.11920 17.29187 1563 ft 146 kts 320°
2026-04-29 15:47 48.12613 17.28111 1372 ft 146 kts 321°
2026-04-29 15:47 48.13310 17.27024 1163 ft 143 kts 321°
2026-04-29 15:48 48.13982 17.25975 960 ft 136 kts 321°
2026-04-29 15:48 48.14638 17.24953 774 ft 138 kts 319°
2026-04-29 15:48 48.15306 17.23911 617 ft 139 kts 320°
2026-04-29 15:48 48.15969 17.22872 427 ft 135 kts 320°
2026-04-29 15:49 48.16531 17.22013 426 ft 94 kts 314°
2026-04-29 15:49 48.16882 17.21466 422 ft 53 kts 314°
2026-04-29 15:49 48.17061 17.21188 422 ft 26 kts 314°
2026-04-29 15:49 48.17133 17.21046 415 ft 13 kts 263°
2026-04-29 15:50 48.17076 17.20938 423 ft 13 kts 227°
2026-04-29 15:50 48.17048 17.20838 422 ft 10 kts 303°
2026-04-29 15:50 48.17094 17.20761 429 ft 10 kts 313°
2026-04-29 15:50 48.17141 17.20685 426 ft 11 kts 313°
2026-04-29 15:51 48.17156 17.20566 425 ft 14 kts 241°
2026-04-29 15:51 48.17084 17.20454 434 ft 16 kts 224°
2026-04-29 15:51 48.17004 17.20338 432 ft 16 kts 224°
2026-04-29 15:51 48.16951 17.20238 433 ft 7 kts 276°
2026-04-29 15:52 48.16975 17.20192 434 ft 3 kts 314°
2026-04-29 15:52 48.16983 17.20179 434 ft 0 kts 314°